Theta_e
330 330 330 330 331 331 333 332 333 332 333 333 333 334 339 345 348 349 349 349 352 354 354 352 352 352 352 352 352 352 352 351 351 351 351 351 351 351 352 353 354 354 354 353
336 333 331 331 330 330 331 332 333 332 333 332 333 338 342 344 346 349 351 350 352 353 354 353 352 352 351 351 351 351 351 352 351 352 351 351 352 352 352 354 353 354 353 352
338 335 334 335 333 332 332 332 333 334 334 333 335 341 341 344 348 348 350 351 352 354 354 352 351 351 352 352 352 352 352 351 351 351 349 348 348 349 349 350 350 351 352 352
338 337 340 334 333 332 332 332 333 334 334 336 338 338 341 342 344 349 349 352 353 352 350 351 350 350 351 351 351 351 351 351 350 349 349 349 348 348 348 348 348 349 350 351
337 337 335 332 332 334 335 334 333 334 335 335 337 340 342 342 345 347 350 352 351 348 349 350 350 351 350 350 350 350 350 349 349 349 349 350 350 351 349 349 348 347 348 349
334 336 336 333 335 335 336 338 338 339 338 336 338 337 337 343 344 347 349 350 348 348 350 346 347 348 347 348 349 350 349 349 350 349 349 348 348 348 349 348 348 348 347 348
334 334 332 333 335 335 339 340 339 338 340 339 339 340 342 338 340 340 348 350 348 348 343 344 346 345 346 347 348 348 350 351 351 350 349 348 348 347 345 346 347 345 347 349
332 335 337 335 335 340 340 337 339 338 339 340 340 340 339 337 339 340 341 349 349 347 345 348 345 344 346 346 347 348 349 348 348 347 345 344 345 343 342 342 342 346 348 346
336 338 333 332 331 331 332 335 337 336 335 336 339 340 339 341 340 341 342 343 349 346 347 347 346 344 345 346 345 344 345 345 344 343 342 341 341 341 341 339 340 342 344 346
332 329 329 329 328 331 334 335 335 334 334 334 337 340 341 342 343 342 344 344 349 348 349 349 346 343 342 342 342 342 342 341 340 339 339 338 335 334 335 337 336 337 339 340
327 326 326 327 331 330 328 328 331 333 333 333 335 339 342 344 346 345 346 346 349 350 350 348 343 339 339 341 341 340 341 340 339 337 337 334 330 328 329 326 327 331 332 332
331 327 328 329 327 326 327 328 329 332 333 333 335 338 341 344 346 347 349 349 351 352 350 343 338 339 339 338 338 339 340 338 337 336 336 335 333 327 326 325 324 325 326 329
330 327 326 327 326 324 326 327 330 332 333 333 333 334 339 344 346 347 349 350 352 350 344 339 338 340 339 338 339 340 338 338 335 335 335 336 336 335 331 324 324 324 325 326
328 328 329 327 328 325 327 328 330 331 331 331 332 332 337 342 345 345 346 348 347 339 338 338 340 340 339 340 340 340 340 336 337 334 333 334 335 335 334 334 332 329 325 325
328 329 330 328 327 327 326 329 332 332 330 331 332 334 337 342 345 345 346 346 341 334 333 333 338 338 338 339 340 340 339 337 336 334 333 333 334 334 334 334 334 332 330 326
332 331 330 330 331 331 331 331 332 333 332 331 333 335 337 340 342 343 343 342 336 337 336 336 336 335 333 332 339 339 339 337 335 334 334 333 333 333 333 333 332 334 334 334
332 333 332 332 331 331 331 331 332 332 333 334 334 334 337 339 341 341 339 335 332 334 335 337 337 340 339 338 339 339 338 336 334 334 334 333 333 333 332 332 333 334 333 333
325 329 330 331 332 332 332 332 334 334 335 334 334 335 338 341 342 341 338 336 336 336 336 336 337 339 339 339 340 339 338 336 334 334 333 332 332 332 332 333 332 332 332 332
324 326 329 330 331 332 332 333 332 332 332 335 335 337 337 339 338 338 336 336 337 336 335 334 335 336 339 339 340 339 338 336 335 333 333 332 332 332 331 331 331 331 331 331
328 328 328 329 331 331 333 332 332 332 334 336 337 338 337 337 337 336 336 335 335 335 335 336 336 337 338 340 338 339 338 335 332 332 332 332 332 331 330 329 330 328 328 328
329 328 329 331 332 331 332 333 333 335 336 336 337 339 338 337 337 336 337 338 337 337 337 339 338 338 341 340 337 335 333 331 331 331 331 331 330 330 330 329 329 328 327 327
330 329 330 331 332 332 333 333 334 335 335 336 336 336 336 336 336 336 335 334 333 334 337 337 340 340 338 336 333 329 329 329 330 330 330 330 330 330 330 330 329 328 327 327
329 329 329 329 331 332 333 333 333 334 335 335 335 334 333 333 331 332 334 329 330 330 334 338 337 337 335 331 330 330 329 329 329 330 330 330 330 330 330 330 328 327 326 326
329 329 329 328 330 332 334 332 333 332 334 334 334 332 334 333 331 330 331 330 328 326 325 336 335 334 332 332 332 331 330 329 329 328 328 330 330 330 330 329 328 327 326 325
326 329 329 329 328 329 329 331 331 332 332 332 332 329 331 330 332 334 334 333 331 332 327 335 334 332 332 332 332 332 332 331 329 328 328 328 328 329 329 329 328 328 328 327
329 329 329 329 329 329 330 330 330 327 327 329 331 329 329 331 330 332 334 334 334 331 334 334 333 332 333 332 333 333 333 332 329 327 326 327 327 328 328 328 328 327 327 327
325 325 327 329 329 329 328 328 329 329 329 328 327 328 329 329 329 328 331 332 334 335 333 334 333 333 333 332 333 333 333 333 330 328 327 327 326 325 325 326 327 327 326 326
Wind_Speed
18 20 21 22 19 19 13 17 20 19 14 11 11 8 9 12 14 14 14 15 14 13 12 15 17 17 17 17 18 18 16 16 17 18 18 18 18 18 18 19 20 18 19 20
18 20 23 24 23 21 21 19 18 21 21 14 7 4 8 11 13 16 15 15 15 13 13 15 16 17 17 17 17 17 15 14 14 15 16 15 15 14 14 16 18 18 19 20
19 19 21 22 17 19 23 21 18 18 19 17 9 12 11 10 13 14 16 16 15 15 14 17 17 17 16 15 14 13 13 13 13 13 14 13 13 13 14 14 14 16 19 21
15 17 22 16 18 13 18 19 21 17 19 8 10 12 7 9 11 13 15 16 15 13 16 17 17 16 15 14 13 13 13 13 14 14 14 13 13 15 15 15 16 18 19 21
16 17 19 17 11 8 13 15 16 17 16 10 6 5 11 9 7 8 13 14 17 19 19 19 19 18 17 16 14 12 12 12 12 13 13 12 12 13 14 14 15 17 17 18
16 19 23 17 10 8 7 11 12 14 13 12 8 7 2 8 4 8 11 17 19 23 23 21 20 19 17 17 17 15 13 11 10 10 9 9 8 8 8 10 13 14 16 15
14 19 21 6 12 9 12 5 13 11 10 11 7 7 7 6 6 3 10 16 19 21 22 24 22 20 18 16 15 15 14 12 10 9 8 6 5 4 5 7 7 9 12 13
11 12 11 14 9 8 11 11 11 10 9 10 11 13 11 9 6 4 7 17 23 25 22 21 22 22 19 17 15 13 13 12 10 7 5 3 2 3 4 4 5 6 7 7
5 5 11 6 10 12 12 10 8 11 11 12 13 12 11 10 9 7 5 16 23 24 26 24 20 21 19 17 15 13 13 11 8 6 4 1 2 3 5 4 5 4 3 4
9 4 6 13 14 6 8 9 11 12 13 11 14 14 12 10 10 7 5 13 22 24 24 25 22 19 20 19 16 14 12 10 9 7 4 1 0 1 3 3 3 3 3 3
15 16 17 11 4 6 9 12 13 13 14 12 14 13 12 11 9 6 5 13 22 25 26 27 26 21 22 20 18 16 14 10 8 7 6 4 3 2 3 2 1 1 2 3
12 16 12 13 13 10 13 15 16 15 15 11 10 12 11 9 8 5 7 15 17 24 28 30 29 24 22 21 18 16 14 11 8 6 7 6 7 7 6 6 7 7 8 8
14 17 17 14 12 15 10 17 16 16 13 12 12 12 11 7 5 5 9 15 18 24 20 22 26 19 18 19 18 14 11 10 8 6 7 7 6 6 7 4 7 8 9 8
15 14 16 14 13 8 12 17 21 12 15 15 15 14 11 8 6 10 12 16 20 26 29 16 16 16 12 11 14 12 8 9 6 6 7 8 7 6 5 6 6 6 6 6
13 8 11 12 11 11 13 21 14 12 10 8 13 11 10 9 8 10 12 17 26 29 28 37 27 25 21 9 10 11 8 7 5 5 7 8 7 6 5 4 5 6 6 6
17 13 13 13 13 13 15 13 12 10 10 9 9 9 11 11 12 12 16 21 27 24 26 24 23 28 18 19 17 12 10 8 6 6 8 9 8 7 5 5 6 6 7 7
14 11 11 12 12 11 12 11 11 11 10 10 11 10 12 12 12 15 18 21 21 20 17 17 17 19 22 22 21 16 12 9 7 6 7 9 9 9 8 6 9 9 9 8
12 14 13 14 14 13 12 11 10 10 10 12 11 11 13 14 13 17 19 17 14 11 12 11 12 15 18 19 20 16 14 10 9 8 8 8 8 8 8 8 8 9 9 9
14 12 15 16 15 11 10 11 11 11 12 11 10 12 16 16 18 16 12 12 12 12 17 17 19 17 12 20 22 16 13 12 11 10 9 8 9 8 9 8 10 9 8 8
13 15 16 17 15 12 10 12 11 10 8 8 8 9 12 14 11 11 12 13 16 14 16 16 20 19 18 19 24 16 14 13 11 10 10 11 10 10 9 8 7 8 8 9
15 12 12 12 10 10 7 5 6 6 6 6 7 9 11 11 10 11 8 6 11 13 13 14 19 19 18 19 22 13 12 12 12 12 12 11 9 9 9 8 9 10 9 9
13 13 13 16 12 10 5 2 1 3 5 6 5 9 9 9 8 7 4 10 8 12 11 19 18 18 18 20 15 12 11 11 13 13 13 13 12 12 9 9 10 10 11 10
15 15 14 16 12 8 7 5 2 1 3 3 5 6 7 7 6 5 3 8 8 11 3 8 12 16 16 15 13 11 10 10 11 14 15 14 14 13 11 9 8 8 10 11
18 15 12 14 12 11 8 11 9 4 3 3 4 5 6 8 4 6 10 12 12 15 8 10 13 17 18 14 11 10 10 10 11 12 13 13 14 14 12 11 11 11 10 9
15 14 12 11 9 8 10 11 11 9 1 3 6 7 7 8 1 4 6 8 11 16 21 20 21 19 18 14 12 12 11 10 11 11 12 12 15 17 15 13 11 12 13 11
14 12 11 8 8 7 11 11 7 5 8 11 7 5 5 7 14 9 5 6 7 13 14 13 16 19 15 14 12 12 12 12 9 9 9 11 12 12 14 15 15 13 13 14
9 12 12 9 11 10 9 11 10 9 7 4 8 9 6 8 12 16 12 10 7 2 6 10 11 14 14 12 11 10 10 13 9 9 8 10 12 11 12 13 15 15 15 15
Wind_Direction
265 270 279 280 271 277 248 255 265 269 260 230 273 239 213 196 194 192 187 188 185 179 180 182 186 191 196 199 193 191 191 201 211 217 222 221 224 229 234 231 229 235 232 232
274 272 271 269 265 266 259 257 267 266 275 289 263 223 229 197 197 195 192 189 179 179 174 178 179 183 186 191 193 193 199 201 203 205 214 213 210 215 219 224 227 231 233 232
262 272 274 257 257 260 262 256 247 252 260 272 223 220 228 207 201 204 194 185 181 176 174 168 169 170 173 176 178 188 194 198 203 204 205 206 208 210 214 222 227 233 237 236
269 274 258 265 269 286 281 283 266 241 264 283 251 236 243 241 219 198 193 181 177 170 166 161 159 164 162 167 178 185 195 197 199 202 210 213 221 230 235 238 238 239 240 240
259 256 260 257 261 286 295 276 276 254 247 237 228 264 248 226 242 199 188 185 172 166 160 155 156 155 157 159 165 173 182 191 195 205 215 220 225 233 241 238 241 237 236 243
251 256 254 261 14 341 296 251 5 349 322 249 192 233 182 68 164 202 179 178 173 162 157 156 156 157 159 160 161 166 174 182 188 191 201 212 222 231 239 249 248 243 238 237
238 247 258 343 325 298 246 290 349 352 342 330 279 329 38 16 38 283 183 172 173 166 166 161 160 158 158 161 164 160 163 159 166 172 178 186 196 216 239 249 249 248 244 245
243 257 246 2 301 303 358 326 332 341 350 340 324 317 321 330 344 332 232 182 182 171 165 164 162 158 157 161 158 159 157 156 159 166 190 198 230 271 271 271 263 266 247 244
310 330 348 347 332 313 307 305 325 328 334 334 323 312 320 329 325 315 255 209 189 179 162 161 168 161 156 151 158 159 158 158 161 168 171 177 284 285 270 279 290 259 262 185
297 235 315 325 313 307 342 322 315 316 319 328 325 319 320 322 320 297 235 207 189 176 167 157 161 161 148 149 153 159 158 157 160 170 164 139 1 341 285 257 247 241 217 182
285 277 275 270 272 307 317 318 307 311 314 316 311 320 326 318 310 285 225 194 189 176 169 160 153 159 151 151 154 154 150 151 165 173 185 141 86 78 57 55 184 157 163 154
282 312 308 293 296 292 310 317 301 297 293 293 294 314 319 313 311 281 209 194 177 173 169 160 152 159 153 150 152 150 145 144 167 181 181 164 147 105 87 98 100 114 121 111
280 277 278 268 287 299 301 313 286 276 269 293 298 295 302 298 292 264 197 192 171 178 158 151 143 151 153 154 151 152 141 143 156 180 187 175 172 167 148 109 103 116 124 132
296 289 274 260 268 285 296 292 296 273 278 281 276 277 273 259 220 215 209 191 161 138 134 97 138 134 149 167 153 147 140 154 159 191 183 182 183 188 180 177 185 171 171 163
283 297 283 287 276 284 285 273 276 276 270 263 264 258 250 244 222 214 210 182 156 156 154 152 182 156 162 164 190 154 164 175 174 182 185 183 187 184 190 198 202 196 194 211
290 277 273 264 260 262 259 271 269 269 282 290 271 243 237 233 223 204 200 181 166 165 162 163 171 185 176 200 204 190 185 183 176 183 177 187 187 201 195 200 221 233 229 216
330 317 315 294 291 287 288 289 281 280 279 279 272 241 225 212 204 199 191 183 173 167 180 184 173 170 175 186 191 190 187 182 181 195 187 190 192 200 203 222 232 228 234 231
315 312 310 302 296 288 283 280 276 276 278 279 260 237 214 204 198 190 184 190 202 214 209 200 186 173 181 188 196 190 191 184 190 203 193 195 203 205 216 222 234 243 244 233
311 302 309 304 296 281 279 282 279 280 277 269 245 227 220 207 194 179 184 206 213 234 246 244 231 210 195 192 191 195 189 194 197 202 198 195 198 203 213 221 229 231 233 238
337 331 324 310 297 302 298 282 266 272 259 245 233 214 216 211 216 211 186 200 214 235 243 227 214 209 201 194 188 194 194 201 202 197 196 195 195 196 201 216 224 218 222 228
339 325 302 296 325 326 311 283 260 239 216 232 235 207 191 193 193 195 198 204 233 230 232 218 195 189 181 186 189 187 200 205 196 195 187 204 184 219 202 205 210 225 228 234
335 334 328 323 338 341 348 345 239 195 216 210 204 178 168 164 165 172 176 144 183 181 169 179 190 179 169 172 187 192 197 199 203 200 201 202 209 211 215 229 239 240 233 235
340 346 351 352 332 343 33 28 93 166 195 198 190 164 168 174 149 139 200 219 154 129 178 207 176 175 171 177 186 193 194 200 214 218 215 218 222 224 231 243 246 259 248 237
339 353 23 9 14 35 45 37 34 40 15 118 135 91 120 129 109 247 243 193 150 139 164 257 204 189 176 187 199 205 220 219 224 229 231 234 238 234 234 242 250 236 244 232
338 352 14 27 32 21 357 6 29 26 340 185 155 74 59 43 154 185 173 163 182 182 186 220 209 189 186 200 204 211 214 221 234 236 241 235 235 233 239 242 247 245 248 255
354 5 7 18 15 20 35 38 56 29 48 28 79 103 43 8 38 50 93 119 164 189 198 193 190 188 197 209 212 218 221 221 222 229 241 241 232 238 241 243 245 247 250 256
29 13 22 24 26 34 33 36 36 47 58 77 47 40 76 17 52 53 52 69 67 72 187 169 182 193 206 213 216 226 226 246 216 236 233 239 247 248 245 246 250 256 262 266